Time,TemperatureF,DewpointF,PressureIn,WindDirection,WindDirectionDegrees,WindSpeedMPH,WindSpeedGustMPH,Humidity,HourlyPrecipIn,Conditions,Clouds,dailyrainin,SoftwareType,DateUTC
2013-07-22 00:00:00,62.7,57.8,29.91,North,5,1.0,4.0,84,0.00,,,0.00,VWS V15.00,2013-07-22 07:00:00,
2013-07-22 00:02:00,62.7,57.8,29.91,North,5,0.0,4.0,84,0.00,,,0.00,VWS V14.01,2013-07-22 07:02:00,
2013-07-22 00:07:00,62.5,57.6,29.91,North,5,0.0,3.0,84,0.00,,,0.00,VWS V14.01,2013-07-22 07:07:00,
2013-07-22 00:12:00,62.3,57.7,29.91,NE,42,2.0,4.0,85,0.00,,,0.00,VWS V14.01,2013-07-22 07:12:00,
2013-07-22 00:17:00,62.0,57.5,29.92,NE,42,0.0,4.0,85,0.00,,,0.00,VWS V14.01,2013-07-22 07:17:00,
2013-07-22 00:22:00,61.8,57.2,29.92,NE,41,1.0,4.0,85,0.00,,,0.00,VWS V14.01,2013-07-22 07:22:00,
2013-07-22 00:27:00,61.6,57.0,29.92,NNE,20,0.0,4.0,85,0.00,,,0.00,VWS V14.01,2013-07-22 07:27:00,
2013-07-22 00:30:00,61.3,57.1,29.92,NE,54,1.0,4.0,86,0.00,,,0.00,VWS V15.00,2013-07-22 07:30:00,
2013-07-22 00:32:00,61.4,57.2,29.92,NNE,24,1.0,4.0,86,0.00,,,0.00,VWS V14.01,2013-07-22 07:32:00,
2013-07-22 00:37:00,61.1,56.9,29.92,NE,36,2.0,5.0,86,0.00,,,0.00,VWS V14.01,2013-07-22 07:37:00,
2013-07-22 00:42:00,60.9,56.7,29.92,NNE,24,0.0,5.0,86,0.00,,,0.00,VWS V14.01,2013-07-22 07:42:00,
2013-07-22 00:47:00,60.7,56.8,29.92,North,360,0.0,5.0,87,0.00,,,0.00,VWS V14.01,2013-07-22 07:47:00,
2013-07-22 00:52:00,60.5,56.6,29.92,North,10,1.0,5.0,87,0.00,,,0.00,VWS V14.01,2013-07-22 07:52:00,
2013-07-22 00:57:00,60.4,56.5,29.93,North,10,0.0,5.0,87,0.00,,,0.00,VWS V14.01,2013-07-22 07:57:00,
2013-07-22 01:00:00,60.2,56.6,29.92,North,10,2.0,5.0,88,0.00,,,0.00,VWS V15.00,2013-07-22 08:00:00,
2013-07-22 01:02:00,60.2,56.6,29.92,North,10,1.0,5.0,88,0.00,,,0.00,VWS V14.01,2013-07-22 08:02:00,
2013-07-22 01:07:00,59.9,56.3,29.92,North,10,0.0,3.0,88,0.00,,,0.00,VWS V14.01,2013-07-22 08:07:00,
2013-07-22 01:12:00,59.7,56.2,29.92,North,11,0.0,3.0,88,0.00,,,0.00,VWS V14.01,2013-07-22 08:12:00,
2013-07-22 01:17:00,59.5,56.0,29.92,North,11,1.0,3.0,88,0.00,,,0.00,VWS V14.01,2013-07-22 08:17:00,
2013-07-22 01:22:00,59.3,55.8,29.93,North,11,2.0,3.0,88,0.00,,,0.00,VWS V14.01,2013-07-22 08:22:00,
2013-07-22 01:27:00,59.1,55.9,29.92,North,11,2.0,4.0,89,0.00,,,0.00,VWS V14.01,2013-07-22 08:27:00,
2013-07-22 01:30:00,58.9,55.7,29.93,North,350,1.0,4.0,89,0.00,,,0.00,VWS V15.00,2013-07-22 08:30:00,
2013-07-22 01:32:00,58.9,55.7,29.93,North,350,1.0,4.0,89,0.00,,,0.00,VWS V14.01,2013-07-22 08:32:00,
2013-07-22 01:37:00,58.7,55.5,29.93,NNE,21,2.0,4.0,89,0.00,,,0.00,VWS V14.01,2013-07-22 08:37:00,
2013-07-22 01:42:00,58.5,55.3,29.93,NE,34,1.0,4.0,89,0.00,,,0.00,VWS V14.01,2013-07-22 08:42:00,
2013-07-22 01:47:00,58.4,55.5,29.93,NNE,26,0.0,5.0,90,0.00,,,0.00,VWS V14.01,2013-07-22 08:47:00,
2013-07-22 01:52:00,58.2,55.3,29.93,NNE,30,0.0,5.0,90,0.00,,,0.00,VWS V14.01,2013-07-22 08:52:00,
2013-07-22 01:58:00,58.2,55.3,29.93,NE,50,2.0,5.0,90,0.00,,,0.00,VWS V14.01,2013-07-22 08:58:00,
2013-07-22 02:00:00,58.1,55.2,29.93,North,355,1.0,5.0,90,0.00,,,0.00,VWS V15.00,2013-07-22 09:00:00,
2013-07-22 02:03:00,58.1,55.2,29.93,NE,42,1.0,1.0,90,0.00,,,0.00,VWS V14.01,2013-07-22 09:03:00,
2013-07-22 02:08:00,58.1,55.2,29.93,North,360,3.0,3.0,90,0.00,,,0.00,VWS V14.01,2013-07-22 09:08:00,
2013-07-22 02:13:00,58.0,55.1,29.93,North,5,3.0,5.0,90,0.00,,,0.00,VWS V14.01,2013-07-22 09:13:00,
2013-07-22 02:18:00,58.0,55.1,29.93,NE,35,2.0,5.0,90,0.00,,,0.00,VWS V14.01,2013-07-22 09:18:00,
2013-07-22 02:23:00,57.9,55.3,29.94,NNE,17,5.0,6.0,91,0.00,,,0.00,VWS V14.01,2013-07-22 09:23:00,
2013-07-22 02:28:00,57.9,55.3,29.94,NNE,17,2.0,6.0,91,0.00,,,0.00,VWS V14.01,2013-07-22 09:28:00,
2013-07-22 02:30:00,57.9,55.3,29.94,NNE,26,0.0,6.0,91,0.00,,,0.00,VWS V15.00,2013-07-22 09:30:00,
2013-07-22 02:33:00,57.9,55.3,29.94,NNE,26,0.0,0.0,91,0.00,,,0.00,VWS V14.01,2013-07-22 09:33:00,
2013-07-22 02:38:00,57.8,55.2,29.94,ENE,74,4.0,4.0,91,0.00,,,0.00,VWS V14.01,2013-07-22 09:38:00,
2013-07-22 02:43:00,57.8,54.9,29.94,ENE,65,2.0,7.0,90,0.00,,,0.00,VWS V14.01,2013-07-22 09:43:00,
2013-07-22 02:48:00,57.7,54.8,29.94,North,5,2.0,7.0,90,0.00,,,0.00,VWS V14.01,2013-07-22 09:48:00,
2013-07-22 02:53:00,57.7,54.8,29.94,NE,49,2.0,7.0,90,0.00,,,0.00,VWS V14.01,2013-07-22 09:53:00,
2013-07-22 02:58:00,57.6,54.7,29.94,NE,53,0.0,7.0,90,0.00,,,0.00,VWS V14.01,2013-07-22 09:58:00,
2013-07-22 03:00:00,57.5,54.6,29.94,NE,37,3.0,7.0,90,0.00,,,0.00,VWS V15.00,2013-07-22 10:00:00,
2013-07-22 03:03:00,57.5,54.9,29.94,NE,40,3.0,6.0,91,0.00,,,0.00,VWS V14.01,2013-07-22 10:03:00,
2013-07-22 03:08:00,57.4,54.8,29.95,NE,44,3.0,6.0,91,0.00,,,0.00,VWS V14.01,2013-07-22 10:08:00,
2013-07-22 03:13:00,57.3,54.7,29.95,NNE,24,0.0,6.0,91,0.00,,,0.00,VWS V14.01,2013-07-22 10:13:00,
2013-07-22 03:18:00,57.3,54.7,29.95,North,355,3.0,7.0,91,0.00,,,0.00,VWS V14.01,2013-07-22 10:18:00,
2013-07-22 03:23:00,57.2,54.6,29.95,NE,38,2.0,7.0,91,0.00,,,0.00,VWS V14.01,2013-07-22 10:23:00,
2013-07-22 03:28:00,57.1,54.5,29.95,ENE,78,2.0,7.0,91,0.00,,,0.00,VWS V14.01,2013-07-22 10:28:00,
2013-07-22 03:30:00,57.1,54.2,29.95,NE,40,0.0,7.0,90,0.00,,,0.00,VWS V15.00,2013-07-22 10:30:00,
2013-07-22 03:34:00,57.1,54.2,29.95,NNE,30,3.0,3.0,90,0.00,,,0.00,VWS V14.01,2013-07-22 10:34:00,
2013-07-22 03:39:00,57.0,54.1,29.95,NNE,24,0.0,14.0,90,0.00,,,0.00,VWS V14.01,2013-07-22 10:39:00,
2013-07-22 03:44:00,57.0,54.1,29.95,NNE,18,0.0,14.0,90,0.00,,,0.00,VWS V14.01,2013-07-22 10:44:00,
2013-07-22 03:49:00,57.0,54.4,29.95,North,5,0.0,14.0,91,0.00,,,0.00,VWS V14.01,2013-07-22 10:49:00,
2013-07-22 03:54:00,57.0,54.1,29.95,NE,37,1.0,14.0,90,0.00,,,0.00,VWS V14.01,2013-07-22 10:54:00,
2013-07-22 03:59:00,57.0,54.4,29.95,NE,43,2.0,14.0,91,0.00,,,0.00,VWS V14.01,2013-07-22 10:59:00,
2013-07-22 04:00:00,56.9,54.3,29.95,NE,51,4.0,14.0,91,0.00,,,0.00,VWS V15.00,2013-07-22 11:00:00,
2013-07-22 04:04:00,56.9,54.3,29.95,NNW,348,4.0,4.0,91,0.00,,,0.00,VWS V14.01,2013-07-22 11:04:00,
2013-07-22 04:09:00,56.9,54.3,29.95,NNE,17,2.0,5.0,91,0.00,,,0.00,VWS V14.01,2013-07-22 11:09:00,
2013-07-22 04:14:00,56.9,54.0,29.95,NNE,17,1.0,5.0,90,0.00,,,0.00,VWS V14.01,2013-07-22 11:14:00,
2013-07-22 04:19:00,56.9,54.0,29.95,NE,51,3.0,6.0,90,0.00,,,0.00,VWS V14.01,2013-07-22 11:19:00,
2013-07-22 04:24:00,56.8,54.2,29.95,NE,53,2.0,6.0,91,0.00,,,0.00,VWS V14.01,2013-07-22 11:24:00,
2013-07-22 04:29:00,56.8,54.2,29.96,East,81,3.0,6.0,91,0.00,,,0.00,VWS V14.01,2013-07-22 11:29:00,
2013-07-22 04:30:00,56.7,54.1,29.96,North,5,0.0,6.0,91,0.00,,,0.00,VWS V15.00,2013-07-22 11:30:00,
2013-07-22 04:34:00,56.7,54.1,29.96,NNE,30,1.0,3.0,91,0.00,,,0.00,VWS V14.01,2013-07-22 11:34:00,
2013-07-22 04:39:00,56.7,54.1,29.96,ENE,63,2.0,4.0,91,0.00,,,0.00,VWS V14.01,2013-07-22 11:39:00,
2013-07-22 04:44:00,56.6,54.0,29.96,North,355,6.0,10.0,91,0.00,,,0.00,VWS V14.01,2013-07-22 11:44:00,
2013-07-22 04:49:00,56.5,53.9,29.96,East,85,6.0,10.0,91,0.00,,,0.00,VWS V14.01,2013-07-22 11:49:00,
2013-07-22 04:54:00,56.4,53.8,29.96,NNE,22,3.0,10.0,91,0.00,,,0.00,VWS V14.01,2013-07-22 11:54:00,
2013-07-22 04:59:00,56.3,53.7,29.96,East,90,2.0,10.0,91,0.00,,,0.00,VWS V14.01,2013-07-22 11:59:00,
2013-07-22 05:00:00,56.3,53.7,29.96,North,360,3.0,10.0,91,0.00,,,0.00,VWS V15.00,2013-07-22 12:00:00,
2013-07-22 05:04:00,56.3,53.7,29.97,North,355,3.0,4.0,91,0.00,,,0.00,VWS V14.01,2013-07-22 12:04:00,
2013-07-22 05:10:00,56.3,53.7,29.97,ENE,66,0.0,5.0,91,0.00,,,0.00,VWS V14.01,2013-07-22 12:10:00,
2013-07-22 05:15:00,56.2,53.6,29.97,North,5,0.0,5.0,91,0.00,,,0.00,VWS V14.01,2013-07-22 12:15:00,
2013-07-22 05:20:00,56.2,53.6,29.97,NNE,20,1.0,7.0,91,0.00,,,0.00,VWS V14.01,2013-07-22 12:20:00,
2013-07-22 05:25:00,56.1,53.5,29.97,North,5,1.0,7.0,91,0.00,,,0.00,VWS V14.01,2013-07-22 12:25:00,
2013-07-22 05:30:00,56.1,53.5,29.97,NE,43,3.0,7.0,91,0.00,,,0.00,VWS V14.01,2013-07-22 12:30:00,
2013-07-22 05:35:00,56.0,53.4,29.97,North,9,0.0,4.0,91,0.00,,,0.00,VWS V14.01,2013-07-22 12:35:00,
2013-07-22 05:40:00,56.0,53.4,29.98,North,9,2.0,4.0,91,0.00,,,0.00,VWS V14.01,2013-07-22 12:40:00,
2013-07-22 05:45:00,56.0,53.4,29.98,NNE,26,0.0,4.0,91,0.00,,,0.00,VWS V14.01,2013-07-22 12:45:00,
2013-07-22 05:50:00,56.0,53.4,29.98,NE,38,0.0,4.0,91,0.00,,,0.00,VWS V14.01,2013-07-22 12:50:00,
2013-07-22 05:55:00,55.9,53.3,29.98,NE,40,3.0,4.0,91,0.00,,,0.00,VWS V14.01,2013-07-22 12:55:00,
2013-07-22 06:00:00,55.8,53.2,29.98,NE,42,0.0,5.0,91,0.00,,,0.00,VWS V14.01,2013-07-22 13:00:00,
2013-07-22 06:05:00,55.8,53.2,29.98,NNE,16,2.0,3.0,91,0.00,,,0.00,VWS V14.01,2013-07-22 13:05:00,
2013-07-22 06:10:00,55.8,53.2,29.98,North,11,1.0,4.0,91,0.00,,,0.00,VWS V14.01,2013-07-22 13:10:00,
2013-07-22 06:15:00,55.8,53.2,29.98,North,5,0.0,5.0,91,0.00,,,0.00,VWS V14.01,2013-07-22 13:15:00,
2013-07-22 06:20:00,55.8,53.2,29.98,NNE,24,1.0,5.0,91,0.00,,,0.00,VWS V14.01,2013-07-22 13:20:00,
2013-07-22 06:25:00,55.8,53.2,29.98,North,360,1.0,5.0,91,0.00,,,0.00,VWS V14.01,2013-07-22 13:25:00,
2013-07-22 06:30:00,55.9,53.3,29.99,NE,56,2.0,5.0,91,0.00,,,0.00,VWS V15.00,2013-07-22 13:30:00,
2013-07-22 06:31:00,55.9,53.3,29.98,ENE,64,2.0,5.0,91,0.00,,,0.00,VWS V14.01,2013-07-22 13:31:00,
2013-07-22 06:36:00,55.8,53.2,29.99,NE,47,1.0,3.0,91,0.00,,,0.00,VWS V14.01,2013-07-22 13:36:00,
2013-07-22 06:41:00,55.9,53.3,29.99,North,9,2.0,5.0,91,0.00,,,0.00,VWS V14.01,2013-07-22 13:41:00,
2013-07-22 06:46:00,55.9,53.3,29.98,NNE,23,0.0,9.0,91,0.00,,,0.00,VWS V14.01,2013-07-22 13:46:00,
2013-07-22 06:51:00,55.9,53.3,29.99,NNE,19,2.0,9.0,91,0.00,,,0.00,VWS V14.01,2013-07-22 13:51:00,
2013-07-22 06:56:00,55.9,53.3,29.99,NNE,24,2.0,9.0,91,0.00,,,0.00,VWS V14.01,2013-07-22 13:56:00,
2013-07-22 07:00:00,55.9,53.3,29.99,North,355,3.0,9.0,91,0.00,,,0.00,VWS V15.00,2013-07-22 14:00:00,
2013-07-22 07:01:00,55.9,53.3,29.99,North,9,1.0,9.0,91,0.00,,,0.00,VWS V14.01,2013-07-22 14:01:00,
2013-07-22 07:06:00,55.9,53.3,29.99,North,9,0.0,3.0,91,0.00,,,0.00,VWS V14.01,2013-07-22 14:06:00,
2013-07-22 07:11:00,56.0,53.4,29.99,NE,35,1.0,3.0,91,0.00,,,0.00,VWS V14.01,2013-07-22 14:11:00,
2013-07-22 07:16:00,56.0,53.4,29.99,NE,38,3.0,4.0,91,0.00,,,0.00,VWS V14.01,2013-07-22 14:16:00,
2013-07-22 07:21:00,56.1,53.5,29.99,NNE,13,4.0,7.0,91,0.00,,,0.00,VWS V14.01,2013-07-22 14:21:00,
2013-07-22 07:26:00,56.0,53.1,30.00,NNE,25,2.0,7.0,90,0.00,,,0.00,VWS V14.01,2013-07-22 14:26:00,
2013-07-22 07:30:00,56.0,53.1,30.00,NNE,17,2.0,7.0,90,0.00,,,0.00,VWS V15.00,2013-07-22 14:30:00,
2013-07-22 07:31:00,56.0,53.1,30.00,ENE,59,0.0,7.0,90,0.00,,,0.00,VWS V14.01,2013-07-22 14:31:00,
2013-07-22 07:36:00,56.1,53.2,30.00,North,5,2.0,5.0,90,0.00,,,0.00,VWS V14.01,2013-07-22 14:36:00,
2013-07-22 07:42:00,56.1,53.2,30.00,NNE,17,3.0,5.0,90,0.00,,,0.00,VWS V14.01,2013-07-22 14:42:00,
2013-07-22 07:47:00,56.1,53.2,30.00,NNE,32,4.0,5.0,90,0.00,,,0.00,VWS V14.01,2013-07-22 14:47:00,
2013-07-22 07:52:00,56.1,53.2,30.00,NNE,28,3.0,5.0,90,0.00,,,0.00,VWS V14.01,2013-07-22 14:52:00,
2013-07-22 07:57:00,56.1,53.2,30.00,NNE,29,0.0,5.0,90,0.00,,,0.00,VWS V14.01,2013-07-22 14:57:00,
2013-07-22 08:00:00,56.1,53.2,30.01,ENE,78,0.0,6.0,90,0.00,,,0.00,VWS V15.00,2013-07-22 15:00:00,
2013-07-22 08:02:00,56.1,53.2,30.01,East,83,2.0,6.0,90,0.00,,,0.00,VWS V14.01,2013-07-22 15:02:00,
2013-07-22 08:07:00,56.1,53.2,30.01,ENE,67,4.0,4.0,90,0.00,,,0.00,VWS V14.01,2013-07-22 15:07:00,
2013-07-22 08:12:00,56.1,53.2,30.01,North,11,0.0,6.0,90,0.00,,,0.00,VWS V14.01,2013-07-22 15:12:00,
2013-07-22 08:17:00,56.2,53.3,30.01,NE,49,1.0,6.0,90,0.00,,,0.00,VWS V14.01,2013-07-22 15:17:00,
2013-07-22 08:22:00,56.3,53.4,30.01,NE,36,1.0,6.0,90,0.00,,,0.00,VWS V14.01,2013-07-22 15:22:00,
2013-07-22 08:27:00,56.4,53.5,30.01,NNE,30,4.0,6.0,90,0.00,,,0.00,VWS V14.01,2013-07-22 15:27:00,
2013-07-22 08:30:00,56.5,53.6,30.01,NNE,27,1.0,6.0,90,0.00,,,0.00,VWS V15.00,2013-07-22 15:30:00,
2013-07-22 08:32:00,56.5,53.6,30.01,NNE,27,2.0,6.0,90,0.00,,,0.00,VWS V14.01,2013-07-22 15:32:00,
2013-07-22 08:37:00,56.7,53.8,30.01,NNE,12,1.0,5.0,90,0.00,,,0.00,VWS V14.01,2013-07-22 15:37:00,
2013-07-22 08:42:00,56.8,53.6,30.01,North,355,0.0,5.0,89,0.00,,,0.00,VWS V14.01,2013-07-22 15:42:00,
2013-07-22 08:47:00,56.9,53.7,30.02,NNE,29,2.0,5.0,89,0.00,,,0.00,VWS V14.01,2013-07-22 15:47:00,
2013-07-22 08:53:00,57.1,53.9,30.02,North,355,0.0,5.0,89,0.00,,,0.00,VWS V14.01,2013-07-22 15:53:00,
2013-07-22 08:58:00,57.3,54.1,30.02,North,360,1.0,6.0,89,0.00,,,0.00,VWS V14.01,2013-07-22 15:58:00,
2013-07-22 09:00:00,57.5,54.0,30.02,NNE,28,0.0,6.0,88,0.00,,,0.00,VWS V15.00,2013-07-22 16:00:00,
2013-07-22 09:03:00,57.5,54.0,30.02,NNE,28,0.0,0.0,88,0.00,,,0.00,VWS V14.01,2013-07-22 16:03:00,
2013-07-22 09:08:00,57.6,54.1,30.02,ENE,57,2.0,4.0,88,0.00,,,0.00,VWS V14.01,2013-07-22 16:08:00,
2013-07-22 09:13:00,57.7,53.9,30.02,ENE,65,0.0,5.0,87,0.00,,,0.00,VWS V14.01,2013-07-22 16:13:00,
2013-07-22 09:18:00,57.5,53.7,30.02,ENE,61,0.0,5.0,87,0.00,,,0.00,VWS V14.01,2013-07-22 16:18:00,
2013-07-22 09:23:00,57.5,54.0,30.02,NNW,339,1.0,5.0,88,0.00,,,0.00,VWS V14.01,2013-07-22 16:23:00,
2013-07-22 09:28:00,57.7,54.2,30.02,NE,46,0.0,5.0,88,0.00,,,0.00,VWS V14.01,2013-07-22 16:28:00,
2013-07-22 09:30:00,57.8,54.3,30.02,North,11,1.0,6.0,88,0.00,,,0.00,VWS V15.00,2013-07-22 16:30:00,
2013-07-22 09:33:00,57.9,54.1,30.02,North,5,0.0,3.0,87,0.00,,,0.00,VWS V14.01,2013-07-22 16:33:00,
2013-07-22 09:38:00,58.1,54.3,30.02,North,5,0.0,3.0,87,0.00,,,0.00,VWS V14.01,2013-07-22 16:38:00,
2013-07-22 09:43:00,58.3,54.5,30.02,North,5,3.0,5.0,87,0.00,,,0.00,VWS V14.01,2013-07-22 16:43:00,
2013-07-22 09:48:00,58.5,54.3,30.02,North,5,2.0,5.0,86,0.00,,,0.00,VWS V14.01,2013-07-22 16:48:00,
2013-07-22 09:53:00,58.6,54.4,30.02,East,80,5.0,5.0,86,0.00,,,0.00,VWS V14.01,2013-07-22 16:53:00,
2013-07-22 09:59:00,58.7,54.5,30.02,ENE,74,1.0,7.0,86,0.00,,,0.00,VWS V14.01,2013-07-22 16:59:00,
2013-07-22 10:00:00,58.8,54.6,30.02,NNE,26,0.0,7.0,86,0.00,,,0.00,VWS V15.00,2013-07-22 17:00:00,
2013-07-22 10:04:00,58.9,54.7,30.02,NE,40,0.0,2.0,86,0.00,,,0.00,VWS V14.01,2013-07-22 17:04:00,
2013-07-22 10:09:00,59.2,54.7,30.02,ENE,71,0.0,5.0,85,0.00,,,0.00,VWS V14.01,2013-07-22 17:09:00,
2013-07-22 10:14:00,59.5,55.0,30.02,NE,53,4.0,6.0,85,0.00,,,0.00,VWS V14.01,2013-07-22 17:14:00,
2013-07-22 10:19:00,59.8,55.0,30.02,NNE,24,0.0,6.0,84,0.00,,,0.00,VWS V14.01,2013-07-22 17:19:00,
2013-07-22 10:24:00,60.2,55.0,30.02,North,360,2.0,6.0,83,0.00,,,0.00,VWS V14.01,2013-07-22 17:24:00,
2013-07-22 10:29:00,60.1,54.6,30.02,ENE,61,2.0,6.0,82,0.00,,,0.00,VWS V14.01,2013-07-22 17:29:00,
2013-07-22 10:30:00,60.0,55.2,30.02,NE,38,1.0,6.0,84,0.00,,,0.00,VWS V15.00,2013-07-22 17:30:00,
2013-07-22 10:34:00,60.0,55.2,30.02,NE,51,1.0,2.0,84,0.00,,,0.00,VWS V14.01,2013-07-22 17:34:00,
2013-07-22 10:39:00,60.5,55.7,30.02,NNW,346,3.0,6.0,84,0.00,,,0.00,VWS V14.01,2013-07-22 17:39:00,
2013-07-22 10:44:00,60.9,55.4,30.02,NNE,17,2.0,6.0,82,0.00,,,0.00,VWS V14.01,2013-07-22 17:44:00,
2013-07-22 10:49:00,61.4,55.5,30.02,North,360,3.0,6.0,81,0.00,,,0.00,VWS V14.01,2013-07-22 17:49:00,
2013-07-22 10:54:00,61.5,55.6,30.02,ENE,70,4.0,6.0,81,0.00,,,0.00,VWS V14.01,2013-07-22 17:54:00,
2013-07-22 10:59:00,62.0,56.1,30.02,NNE,12,2.0,6.0,81,0.00,,,0.00,VWS V14.01,2013-07-22 17:59:00,
2013-07-22 11:00:00,62.5,55.9,30.02,ENE,62,2.0,6.0,79,0.00,,,0.00,VWS V15.00,2013-07-22 18:00:00,
2013-07-22 11:04:00,62.7,56.5,30.02,NE,51,0.0,3.0,80,0.00,,,0.00,VWS V14.01,2013-07-22 18:04:00,
2013-07-22 11:11:00,63.6,56.6,30.02,East,80,0.0,6.0,78,0.00,,,0.00,VWS V14.01,2013-07-22 18:11:00,
2013-07-22 11:16:00,64.2,56.5,30.02,NW,306,2.0,7.0,76,0.00,,,0.00,VWS V14.01,2013-07-22 18:16:00,
2013-07-22 11:21:00,64.3,57.0,30.02,NE,36,3.0,7.0,77,0.00,,,0.00,VWS V14.01,2013-07-22 18:21:00,
2013-07-22 11:26:00,64.6,56.5,30.02,WNW,298,6.0,8.0,75,0.00,,,0.00,VWS V14.01,2013-07-22 18:26:00,
2013-07-22 11:30:00,65.0,56.9,30.02,NNE,14,4.0,8.0,75,0.00,,,0.00,VWS V15.00,2013-07-22 18:30:00,
2013-07-22 11:32:00,65.0,56.9,30.02,North,355,5.0,8.0,75,0.00,,,0.00,VWS V14.01,2013-07-22 18:32:00,
2013-07-22 11:37:00,65.5,56.6,30.02,NNE,21,0.0,5.0,73,0.00,,,0.00,VWS V14.01,2013-07-22 18:37:00,
2013-07-22 11:42:00,65.6,56.3,30.01,East,86,1.0,7.0,72,0.00,,,0.00,VWS V14.01,2013-07-22 18:42:00,
2013-07-22 11:48:00,65.5,56.6,30.01,NNE,14,4.0,7.0,73,0.00,,,0.00,VWS V14.01,2013-07-22 18:48:00,
2013-07-22 11:53:00,65.7,56.4,30.01,NE,40,5.0,8.0,72,0.00,,,0.00,VWS V14.01,2013-07-22 18:53:00,
2013-07-22 11:58:00,66.0,56.7,30.02,NNE,16,2.0,8.0,72,0.00,,,0.00,VWS V14.01,2013-07-22 18:58:00,
2013-07-22 12:00:00,66.5,56.8,30.02,NW,315,1.0,8.0,71,0.00,,,0.00,VWS V15.00,2013-07-22 19:00:00,
2013-07-22 12:03:00,66.6,56.5,30.02,NNE,28,6.0,6.0,70,0.00,,,0.00,VWS V14.01,2013-07-22 19:03:00,
2013-07-22 12:09:00,66.7,56.2,30.02,North,349,1.0,7.0,69,0.00,,,0.00,VWS V14.01,2013-07-22 19:09:00,
2013-07-22 12:14:00,67.1,56.2,30.02,West,279,0.0,7.0,68,0.00,,,0.00,VWS V14.01,2013-07-22 19:14:00,
2013-07-22 12:20:00,67.4,56.9,30.01,NE,34,2.0,7.0,69,0.00,,,0.00,VWS V14.01,2013-07-22 19:20:00,
2013-07-22 12:25:00,67.7,56.4,30.01,NNW,341,0.0,7.0,67,0.00,,,0.00,VWS V14.01,2013-07-22 19:25:00,
2013-07-22 12:30:00,68.2,56.8,30.01,ENE,66,2.0,7.0,67,0.00,,,0.00,VWS V14.01,2013-07-22 19:30:00,
2013-07-22 12:35:00,68.9,57.1,30.01,ENE,74,3.0,6.0,66,0.00,,,0.00,VWS V14.01,2013-07-22 19:35:00,
2013-07-22 12:41:00,68.7,56.5,30.00,NNE,12,0.0,7.0,65,0.00,,,0.00,VWS V14.01,2013-07-22 19:41:00,
2013-07-22 12:46:00,69.0,56.3,30.00,NW,307,1.0,9.0,64,0.00,,,0.00,VWS V14.01,2013-07-22 19:46:00,
2013-07-22 12:52:00,69.5,57.7,30.00,ENE,63,5.0,9.0,66,0.00,,,0.00,VWS V14.01,2013-07-22 19:52:00,
2013-07-22 12:57:00,69.8,57.1,30.00,NE,44,0.0,9.0,64,0.00,,,0.00,VWS V14.01,2013-07-22 19:57:00,
2013-07-22 13:00:00,70.0,57.3,30.00,NNE,15,3.0,9.0,64,0.00,,,0.00,VWS V15.00,2013-07-22 20:00:00,
2013-07-22 13:02:00,70.0,57.3,30.00,NE,53,3.0,9.0,64,0.00,,,0.00,VWS V14.01,2013-07-22 20:02:00,
2013-07-22 13:07:00,70.7,57.1,30.00,ENE,67,5.0,6.0,62,0.00,,,0.00,VWS V14.01,2013-07-22 20:07:00,
2013-07-22 13:12:00,70.6,57.0,30.00,NW,321,1.0,6.0,62,0.00,,,0.00,VWS V14.01,2013-07-22 20:12:00,
2013-07-22 13:17:00,70.9,56.8,30.00,North,355,1.0,6.0,61,0.00,,,0.00,VWS V14.01,2013-07-22 20:17:00,
2013-07-22 13:18:00,71.2,57.5,30.00,NNE,19,1.0,6.0,62,0.00,,,0.00,VWS V14.01,2013-07-22 20:18:00,
2013-07-22 13:19:00,71.3,57.2,30.00,ENE,59,4.0,6.0,61,0.00,,,0.00,VWS V14.01,2013-07-22 20:19:00,
2013-07-22 13:24:00,71.9,56.8,30.00,East,84,2.0,6.0,59,0.00,,,0.00,VWS V14.01,2013-07-22 20:24:00,
2013-07-22 13:29:00,72.1,55.6,30.00,NNW,342,2.0,7.0,56,0.00,,,0.00,VWS V14.01,2013-07-22 20:29:00,
2013-07-22 13:30:00,72.4,56.8,30.00,NE,40,1.0,7.0,58,0.00,,,0.00,VWS V15.00,2013-07-22 20:30:00,
2013-07-22 13:34:00,72.7,56.6,30.00,NE,51,3.0,3.0,57,0.00,,,0.00,VWS V14.01,2013-07-22 20:34:00,
2013-07-22 13:39:00,72.6,55.5,30.00,NNE,28,3.0,9.0,55,0.00,,,0.00,VWS V14.01,2013-07-22 20:39:00,
2013-07-22 13:43:00,72.9,56.3,30.00,NE,53,0.0,9.0,56,0.00,,,0.00,VWS V14.01,2013-07-22 20:43:00,
2013-07-22 13:48:00,73.4,55.2,30.00,NNE,28,1.0,9.0,53,0.00,,,0.00,VWS V14.01,2013-07-22 20:48:00,
2013-07-22 13:53:00,73.7,56.5,30.00,ENE,63,0.0,9.0,55,0.00,,,0.00,VWS V14.01,2013-07-22 20:53:00,
2013-07-22 13:58:00,73.9,56.2,30.00,WNW,296,6.0,9.0,54,0.00,,,0.00,VWS V14.01,2013-07-22 20:58:00,
2013-07-22 14:00:00,73.5,55.8,30.00,NNW,329,4.0,9.0,54,0.00,,,0.00,VWS V15.00,2013-07-22 21:00:00,
2013-07-22 14:03:00,73.5,55.9,30.00,East,88,1.0,4.0,54,0.00,,,0.00,VWS V14.01,2013-07-22 21:03:00,
2013-07-22 14:09:00,73.8,56.1,30.00,NE,48,5.0,5.0,54,0.00,,,0.00,VWS V14.01,2013-07-22 21:09:00,
2013-07-22 14:14:00,74.1,55.9,30.00,ENE,63,4.0,6.0,53,0.00,,,0.00,VWS V14.01,2013-07-22 21:14:00,
2013-07-22 14:19:00,74.3,56.6,30.00,NE,34,5.0,6.0,54,0.00,,,0.00,VWS V14.01,2013-07-22 21:19:00,
2013-07-22 14:24:00,74.5,55.7,30.00,NW,315,0.0,6.0,52,0.00,,,0.00,VWS V14.01,2013-07-22 21:24:00,
2013-07-22 14:29:00,74.7,55.9,30.00,West,275,3.0,7.0,52,0.00,,,0.00,VWS V14.01,2013-07-22 21:29:00,
2013-07-22 14:30:00,74.7,55.9,30.00,WNW,290,1.0,7.0,52,0.00,,,0.00,VWS V15.00,2013-07-22 21:30:00,
2013-07-22 14:34:00,74.9,56.1,30.00,NW,312,0.0,2.0,52,0.00,,,0.00,VWS V14.01,2013-07-22 21:34:00,
2013-07-22 14:39:00,75.3,55.9,29.99,NNE,12,1.0,6.0,51,0.00,,,0.00,VWS V14.01,2013-07-22 21:39:00,
2013-07-22 14:44:00,75.3,55.9,29.99,North,9,3.0,6.0,51,0.00,,,0.00,VWS V14.01,2013-07-22 21:44:00,
2013-07-22 14:49:00,75.7,55.8,29.99,ENE,68,1.0,6.0,50,0.00,,,0.00,VWS V14.01,2013-07-22 21:49:00,
2013-07-22 14:54:00,76.0,55.5,29.99,NNE,12,4.0,6.0,49,0.00,,,0.00,VWS V14.01,2013-07-22 21:54:00,
2013-07-22 14:59:00,76.3,56.3,29.99,ENE,78,3.0,6.0,50,0.00,,,0.00,VWS V14.01,2013-07-22 21:59:00,
2013-07-22 15:00:00,76.2,56.2,29.99,ENE,78,2.0,6.0,50,0.00,,,0.00,VWS V15.00,2013-07-22 22:00:00,
2013-07-22 15:04:00,75.9,56.0,29.98,ENE,59,0.0,4.0,50,0.00,,,0.00,VWS V14.01,2013-07-22 22:04:00,
2013-07-22 15:09:00,76.2,57.3,29.98,North,350,3.0,4.0,52,0.00,,,0.00,VWS V14.01,2013-07-22 22:09:00,
2013-07-22 15:14:00,76.7,57.8,29.98,North,350,2.0,6.0,52,0.00,,,0.00,VWS V14.01,2013-07-22 22:14:00,
2013-07-22 15:20:00,77.2,56.6,29.98,NNE,25,0.0,6.0,49,0.00,,,0.00,VWS V14.01,2013-07-22 22:20:00,
2013-07-22 15:25:00,77.6,55.2,29.98,NNW,344,6.0,7.0,46,0.00,,,0.00,VWS V14.01,2013-07-22 22:25:00,
2013-07-22 15:30:00,77.8,56.6,29.98,NNW,338,2.0,7.0,48,0.00,,,0.00,VWS V14.01,2013-07-22 22:30:00,
2013-07-22 15:35:00,77.9,56.7,29.98,North,9,0.0,5.0,48,0.00,,,0.00,VWS V14.01,2013-07-22 22:35:00,
2013-07-22 15:40:00,78.3,55.8,29.98,NE,42,4.0,5.0,46,0.00,,,0.00,VWS V14.01,2013-07-22 22:40:00,
2013-07-22 15:45:00,78.5,56.0,29.97,ENE,59,1.0,5.0,46,0.00,,,0.00,VWS V14.01,2013-07-22 22:45:00,
2013-07-22 15:50:00,78.7,55.0,29.97,NE,40,1.0,5.0,44,0.00,,,0.00,VWS V14.01,2013-07-22 22:50:00,
2013-07-22 15:55:00,78.7,55.0,29.97,NNE,15,1.0,6.0,44,0.00,,,0.00,VWS V14.01,2013-07-22 22:55:00,
2013-07-22 16:00:00,78.8,55.7,29.97,North,5,4.0,6.0,45,0.00,,,0.00,VWS V14.01,2013-07-22 23:00:00,
2013-07-22 16:05:00,78.5,56.6,29.97,NNE,28,1.0,7.0,47,0.00,,,0.00,VWS V14.01,2013-07-22 23:05:00,
2013-07-22 16:10:00,78.4,55.9,29.96,North,5,1.0,7.0,46,0.00,,,0.00,VWS V14.01,2013-07-22 23:10:00,
2013-07-22 16:15:00,78.2,55.1,29.96,ENE,74,3.0,7.0,45,0.00,,,0.00,VWS V14.01,2013-07-22 23:15:00,
2013-07-22 16:20:00,78.2,55.8,29.96,NE,41,0.0,7.0,46,0.00,,,0.00,VWS V14.01,2013-07-22 23:20:00,
2013-07-22 16:25:00,78.2,55.1,29.96,North,5,1.0,7.0,45,0.00,,,0.00,VWS V14.01,2013-07-22 23:25:00,
2013-07-22 16:30:00,78.1,55.0,29.96,NW,319,0.0,7.0,45,0.00,,,0.00,VWS V14.01,2013-07-22 23:30:00,
2013-07-22 16:36:00,78.1,56.2,29.96,NE,38,0.0,3.0,47,0.00,,,0.00,VWS V14.01,2013-07-22 23:36:00,
2013-07-22 16:41:00,78.2,56.9,29.96,WNW,297,3.0,4.0,48,0.00,,,0.00,VWS V14.01,2013-07-22 23:41:00,
2013-07-22 16:46:00,78.2,56.3,29.95,NNE,28,0.0,9.0,47,0.00,,,0.00,VWS V14.01,2013-07-22 23:46:00,
2013-07-22 16:51:00,78.2,56.9,29.95,North,9,4.0,10.0,48,0.00,,,0.00,VWS V14.01,2013-07-22 23:51:00,
2013-07-22 16:56:00,78.2,58.1,29.95,NNE,28,3.0,10.0,50,0.00,,,0.00,VWS V14.01,2013-07-22 23:56:00,
2013-07-22 17:00:00,78.2,57.5,29.95,NE,43,0.0,10.0,49,0.00,,,0.00,VWS V15.00,2013-07-23 00:00:00,
2013-07-22 17:01:00,78.2,57.5,29.95,NNE,15,0.0,10.0,49,0.00,,,0.00,VWS V14.01,2013-07-23 00:01:00,
2013-07-22 17:06:00,78.2,58.1,29.95,NNW,340,3.0,6.0,50,0.00,,,0.00,VWS V14.01,2013-07-23 00:06:00,
2013-07-22 17:11:00,78.2,58.1,29.95,NNW,336,1.0,7.0,50,0.00,,,0.00,VWS V14.01,2013-07-23 00:11:00,
2013-07-22 17:15:00,78.2,58.6,29.94,NNE,26,0.0,7.0,51,0.00,,,0.00,VWS V14.01,2013-07-23 00:15:00,
2013-07-22 17:20:00,78.2,58.1,29.95,North,360,5.0,7.0,50,0.00,,,0.00,VWS V14.01,2013-07-23 00:20:00,
2013-07-22 17:25:00,78.2,58.1,29.94,NNE,13,5.0,7.0,50,0.00,,,0.00,VWS V14.01,2013-07-23 00:25:00,
2013-07-22 17:30:00,78.2,58.6,29.94,East,80,2.0,7.0,51,0.00,,,0.00,VWS V14.01,2013-07-23 00:30:00,
2013-07-22 17:35:00,78.2,58.6,29.94,North,355,0.0,5.0,51,0.00,,,0.00,VWS V14.01,2013-07-23 00:35:00,
2013-07-22 17:40:00,78.2,58.6,29.94,North,360,2.0,6.0,51,0.00,,,0.00,VWS V14.01,2013-07-23 00:40:00,
2013-07-22 17:45:00,78.2,58.6,29.94,North,360,2.0,6.0,51,0.00,,,0.00,VWS V14.01,2013-07-23 00:45:00,
2013-07-22 17:50:00,78.3,58.7,29.94,NE,36,1.0,6.0,51,0.00,,,0.00,VWS V14.01,2013-07-23 00:50:00,
2013-07-22 17:56:00,78.4,58.2,29.93,NNE,25,0.0,6.0,50,0.00,,,0.00,VWS V14.01,2013-07-23 00:56:00,
2013-07-22 18:00:00,78.4,58.8,29.93,NE,37,2.0,6.0,51,0.00,,,0.00,VWS V15.00,2013-07-23 01:00:00,
2013-07-22 18:01:00,78.4,58.8,29.93,NNW,345,0.0,6.0,51,0.00,,,0.00,VWS V14.01,2013-07-23 01:01:00,
2013-07-22 18:06:00,78.5,58.3,29.93,NE,44,2.0,5.0,50,0.00,,,0.00,VWS V14.01,2013-07-23 01:06:00,
2013-07-22 18:11:00,78.6,58.4,29.93,NNW,340,3.0,5.0,50,0.00,,,0.00,VWS V14.01,2013-07-23 01:11:00,
2013-07-22 18:16:00,78.6,58.4,29.93,NNE,19,3.0,5.0,50,0.00,,,0.00,VWS V14.01,2013-07-23 01:16:00,
2013-07-22 18:21:00,78.5,58.3,29.93,NE,41,0.0,5.0,50,0.00,,,0.00,VWS V14.01,2013-07-23 01:21:00,
2013-07-22 18:26:00,78.5,58.9,29.93,NE,41,0.0,5.0,51,0.00,,,0.00,VWS V14.01,2013-07-23 01:26:00,
2013-07-22 18:30:00,78.4,58.2,29.93,NNE,31,2.0,5.0,50,0.00,,,0.00,VWS V15.00,2013-07-23 01:30:00,
2013-07-22 18:31:00,78.4,58.2,29.93,NE,41,0.0,5.0,50,0.00,,,0.00,VWS V14.01,2013-07-23 01:31:00,
2013-07-22 18:36:00,78.4,58.2,29.93,NE,53,1.0,3.0,50,0.00,,,0.00,VWS V14.01,2013-07-23 01:36:00,
2013-07-22 18:41:00,78.2,58.1,29.93,NNE,22,2.0,3.0,50,0.00,,,0.00,VWS V14.01,2013-07-23 01:41:00,
2013-07-22 18:46:00,78.1,58.5,29.93,North,360,0.0,4.0,51,0.00,,,0.00,VWS V14.01,2013-07-23 01:46:00,
2013-07-22 18:51:00,78.0,58.4,29.93,North,360,0.0,4.0,51,0.00,,,0.00,VWS V14.01,2013-07-23 01:51:00,
2013-07-22 18:56:00,78.0,57.9,29.93,North,5,0.0,5.0,50,0.00,,,0.00,VWS V14.01,2013-07-23 01:56:00,
2013-07-22 19:00:00,77.8,58.2,29.93,NNE,25,0.0,5.0,51,0.00,,,0.00,VWS V15.00,2013-07-23 02:00:00,
2013-07-22 19:01:00,77.8,58.2,29.93,NNE,24,0.0,5.0,51,0.00,,,0.00,VWS V14.01,2013-07-23 02:01:00,
2013-07-22 19:06:00,77.6,58.6,29.93,NNE,33,0.0,3.0,52,0.00,,,0.00,VWS V14.01,2013-07-23 02:06:00,
2013-07-22 19:11:00,77.5,58.5,29.93,ENE,68,1.0,3.0,52,0.00,,,0.00,VWS V14.01,2013-07-23 02:11:00,
2013-07-22 19:16:00,77.5,59.0,29.93,NNW,327,0.0,3.0,53,0.00,,,0.00,VWS V14.01,2013-07-23 02:16:00,
2013-07-22 19:21:00,77.6,59.1,29.93,NNW,346,0.0,4.0,53,0.00,,,0.00,VWS V14.01,2013-07-23 02:21:00,
2013-07-22 19:26:00,77.5,59.0,29.93,North,355,0.0,4.0,53,0.00,,,0.00,VWS V14.01,2013-07-23 02:26:00,
2013-07-22 19:30:00,77.4,59.0,29.93,North,355,0.0,4.0,53,0.00,,,0.00,VWS V15.00,2013-07-23 02:30:00,
2013-07-22 19:32:00,77.4,59.0,29.93,North,355,0.0,4.0,53,0.00,,,0.00,VWS V14.01,2013-07-23 02:32:00,
2013-07-22 19:37:00,77.2,58.8,29.93,North,355,0.0,4.0,53,0.00,,,0.00,VWS V14.01,2013-07-23 02:37:00,
2013-07-22 19:42:00,76.8,58.9,29.93,NW,325,0.0,4.0,54,0.00,,,0.00,VWS V14.01,2013-07-23 02:42:00,
2013-07-22 19:47:00,76.4,59.1,29.93,NNE,24,3.0,5.0,55,0.00,,,0.00,VWS V14.01,2013-07-23 02:47:00,
2013-07-22 19:52:00,76.0,58.7,29.93,WNW,303,0.0,6.0,55,0.00,,,0.00,VWS V14.01,2013-07-23 02:52:00,
2013-07-22 19:57:00,75.7,58.9,29.93,NE,51,1.0,6.0,56,0.00,,,0.00,VWS V14.01,2013-07-23 02:57:00,
2013-07-22 20:00:00,75.3,59.0,29.93,NE,51,0.0,6.0,57,0.00,,,0.00,VWS V15.00,2013-07-23 03:00:00,
2013-07-22 20:02:00,75.3,58.5,29.93,NE,51,0.0,6.0,56,0.00,,,0.00,VWS V14.01,2013-07-23 03:02:00,
2013-07-22 20:07:00,75.0,58.3,29.93,North,5,0.0,3.0,56,0.00,,,0.00,VWS V14.01,2013-07-23 03:07:00,
2013-07-22 20:12:00,74.7,58.5,29.93,North,355,2.0,3.0,57,0.00,,,0.00,VWS V14.01,2013-07-23 03:12:00,
2013-07-22 20:17:00,74.4,58.2,29.93,ENE,73,3.0,5.0,57,0.00,,,0.00,VWS V14.01,2013-07-23 03:17:00,
2013-07-22 20:22:00,74.1,58.9,29.93,NNW,336,1.0,6.0,59,0.00,,,0.00,VWS V14.01,2013-07-23 03:22:00,
2013-07-22 20:27:00,73.8,59.1,29.93,East,98,2.0,6.0,60,0.00,,,0.00,VWS V14.01,2013-07-23 03:27:00,
2013-07-22 20:30:00,73.5,59.2,29.93,NNE,30,0.0,6.0,61,0.00,,,0.00,VWS V15.00,2013-07-23 03:30:00,
2013-07-22 20:32:00,73.5,59.2,29.93,NNE,30,0.0,6.0,61,0.00,,,0.00,VWS V14.01,2013-07-23 03:32:00,
2013-07-22 20:37:00,73.3,60.0,29.93,NE,41,0.0,5.0,63,0.00,,,0.00,VWS V14.01,2013-07-23 03:37:00,
2013-07-22 20:42:00,73.0,59.7,29.93,North,355,0.0,5.0,63,0.00,,,0.00,VWS V14.01,2013-07-23 03:42:00,
2013-07-22 20:47:00,72.8,59.9,29.93,WNW,303,0.0,5.0,64,0.00,,,0.00,VWS V14.01,2013-07-23 03:47:00,
2013-07-22 20:52:00,72.5,60.1,29.93,WNW,289,4.0,6.0,65,0.00,,,0.00,VWS V14.01,2013-07-23 03:52:00,
2013-07-22 20:57:00,72.3,60.3,29.93,WSW,257,3.0,7.0,66,0.00,,,0.00,VWS V14.01,2013-07-23 03:57:00,
2013-07-22 21:00:00,72.1,60.5,29.93,NNE,26,2.0,7.0,67,0.00,,,0.00,VWS V15.00,2013-07-23 04:00:00,
2013-07-22 21:01:00,72.2,60.2,29.94,NNW,329,0.0,7.0,66,0.00,,,0.00,VWS V14.01,2013-07-23 04:01:00,
2013-07-22 21:02:00,72.1,60.1,29.93,NNW,347,0.0,7.0,66,0.00,,,0.00,VWS V14.01,2013-07-23 04:02:00,
2013-07-22 21:07:00,71.8,60.3,29.94,NE,38,0.0,7.0,67,0.00,,,0.00,VWS V14.01,2013-07-23 04:07:00,
2013-07-22 21:12:00,71.6,60.5,29.94,NNW,338,0.0,7.0,68,0.00,,,0.00,VWS V14.01,2013-07-23 04:12:00,
2013-07-22 21:18:00,71.4,60.3,29.94,North,355,0.0,7.0,68,0.00,,,0.00,VWS V14.01,2013-07-23 04:18:00,
2013-07-22 21:23:00,71.2,60.5,29.94,North,360,0.0,7.0,69,0.00,,,0.00,VWS V14.01,2013-07-23 04:23:00,
2013-07-22 21:28:00,71.0,60.3,29.94,NNW,334,0.0,7.0,69,0.00,,,0.00,VWS V14.01,2013-07-23 04:28:00,
2013-07-22 21:30:00,70.9,60.6,29.94,NNW,334,0.0,7.0,70,0.00,,,0.00,VWS V15.00,2013-07-23 04:30:00,
2013-07-22 21:33:00,70.8,60.5,29.94,NNW,334,0.0,0.0,70,0.00,,,0.00,VWS V14.01,2013-07-23 04:33:00,
2013-07-22 21:38:00,70.7,60.5,29.95,NNW,327,0.0,3.0,70,0.00,,,0.00,VWS V14.01,2013-07-23 04:38:00,
2013-07-22 21:43:00,70.7,60.5,29.95,NNE,13,0.0,3.0,70,0.00,,,0.00,VWS V14.01,2013-07-23 04:43:00,
2013-07-22 21:48:00,70.5,60.7,29.95,NNE,32,0.0,4.0,71,0.00,,,0.00,VWS V14.01,2013-07-23 04:48:00,
2013-07-22 21:53:00,70.4,60.6,29.95,NNE,32,0.0,4.0,71,0.00,,,0.00,VWS V14.01,2013-07-23 04:53:00,
2013-07-22 21:58:00,70.3,60.9,29.95,NNW,340,0.0,4.0,72,0.00,,,0.00,VWS V14.01,2013-07-23 04:58:00,
2013-07-22 22:00:00,70.2,60.8,29.95,NE,38,4.0,4.0,72,0.00,,,0.00,VWS V15.00,2013-07-23 05:00:00,
2013-07-22 22:03:00,70.2,60.8,29.95,NE,41,1.0,5.0,72,0.00,,,0.00,VWS V14.01,2013-07-23 05:03:00,
2013-07-22 22:08:00,70.0,60.6,29.96,NNE,14,0.0,5.0,72,0.00,,,0.00,VWS V14.01,2013-07-23 05:08:00,
2013-07-22 22:13:00,69.9,60.9,29.95,NNE,14,0.0,5.0,73,0.00,,,0.00,VWS V14.01,2013-07-23 05:13:00,
2013-07-22 22:18:00,69.7,60.7,29.96,NNE,14,0.0,5.0,73,0.00,,,0.00,VWS V14.01,2013-07-23 05:18:00,
2013-07-22 22:23:00,69.5,60.9,29.96,NNE,13,0.0,5.0,74,0.00,,,0.00,VWS V14.01,2013-07-23 05:23:00,
2013-07-22 22:28:00,69.3,60.7,29.96,NNE,21,0.0,5.0,74,0.00,,,0.00,VWS V14.01,2013-07-23 05:28:00,
2013-07-22 22:30:00,69.2,60.6,29.96,NNE,21,0.0,5.0,74,0.00,,,0.00,VWS V15.00,2013-07-23 05:30:00,
2013-07-22 22:33:00,69.1,60.5,29.96,NNE,21,0.0,0.0,74,0.00,,,0.00,VWS V14.01,2013-07-23 05:33:00,
2013-07-22 22:39:00,68.9,60.7,29.96,NNE,21,0.0,2.0,75,0.00,,,0.00,VWS V14.01,2013-07-23 05:39:00,
2013-07-22 22:44:00,68.8,60.6,29.96,North,355,0.0,3.0,75,0.00,,,0.00,VWS V14.01,2013-07-23 05:44:00,
2013-07-22 22:49:00,68.6,60.7,29.96,North,360,0.0,3.0,76,0.00,,,0.00,VWS V14.01,2013-07-23 05:49:00,
2013-07-22 22:54:00,68.4,60.5,29.96,North,360,0.0,3.0,76,0.00,,,0.00,VWS V14.01,2013-07-23 05:54:00,
2013-07-22 22:59:00,68.3,60.8,29.96,North,360,0.0,3.0,77,0.00,,,0.00,VWS V14.01,2013-07-23 05:59:00,
2013-07-22 23:00:00,68.1,60.6,29.96,North,360,0.0,3.0,77,0.00,,,0.00,VWS V15.00,2013-07-23 06:00:00,
2013-07-22 23:04:00,68.0,60.5,29.96,North,360,0.0,0.0,77,0.00,,,0.00,VWS V14.01,2013-07-23 06:04:00,
2013-07-22 23:09:00,67.9,60.4,29.96,North,360,0.0,0.0,77,0.00,,,0.00,VWS V14.01,2013-07-23 06:09:00,
2013-07-22 23:14:00,67.7,60.6,29.96,NE,45,3.0,3.0,78,0.00,,,0.00,VWS V14.01,2013-07-23 06:14:00,
2013-07-22 23:19:00,67.6,60.5,29.97,NNE,16,0.0,3.0,78,0.00,,,0.00,VWS V14.01,2013-07-23 06:19:00,
2013-07-22 23:24:00,67.4,60.3,29.96,NNE,16,0.0,3.0,78,0.00,,,0.00,VWS V14.01,2013-07-23 06:24:00,
2013-07-22 23:29:00,67.3,60.2,29.96,NNE,21,1.0,3.0,78,0.00,,,0.00,VWS V14.01,2013-07-23 06:29:00,
2013-07-22 23:30:00,67.1,60.0,29.97,North,10,2.0,3.0,78,0.00,,,0.00,VWS V15.00,2013-07-23 06:30:00,
2013-07-22 23:34:00,67.1,60.4,29.97,North,10,0.0,2.0,79,0.00,,,0.00,VWS V14.01,2013-07-23 06:34:00,
2013-07-22 23:39:00,66.9,60.2,29.97,North,10,0.0,2.0,79,0.00,,,0.00,VWS V14.01,2013-07-23 06:39:00,
2013-07-22 23:44:00,66.8,60.1,29.97,WSW,243,0.0,3.0,79,0.00,,,0.00,VWS V14.01,2013-07-23 06:44:00,
2013-07-22 23:49:00,66.6,59.9,29.96,WSW,243,0.0,3.0,79,0.00,,,0.00,VWS V14.01,2013-07-23 06:49:00,
2013-07-22 23:54:00,66.5,60.2,29.96,North,5,0.0,3.0,80,0.00,,,0.00,VWS V14.01,2013-07-23 06:54:00,